Regional Weather Roundup
Issued by NWS New Orleans/Baton Rouge, LA

Home | Current Version | Previous Version | Graphics & Text | Print | Product List | Glossary On
Versions: 1 2 3 4 5 6 7 8 9 10 11 12 13 14 15 16 17 18 19 20 21 22 23 24 25 26 27 28 29 30 31 32 33 34 35 36 37 38 39 40 41 42 43 44 45 46 47 48 49 50
172
ASUS44 KLIX 220101
RWRLIX
NEW ORLEANS REGIONAL WEATHER ROUNDUP
NATIONAL WEATHER SERVICE NEW ORLEANS LA
700 PM CST SUN DEC 21 2014

NOTE: "FAIR" INDICATES FEW OR NO CLOUDS BELOW 12,000 FEET WITH NO
      SIGNIFICANT WEATHER AND/OR OBSTRUCTIONS TO VISIBILITY.
      SKY/WX - SKY CONDITION AND SIGNIFICANT WEATHER.
      TMP - AIR TEMPERATURE.     DP    - DEWPOINT TEMPERATURE.
      RH  - RELATIVE HUMIDITY.   PRES  - PRESSURE.
      HI  - HEAT INDEX.          WCI   - WIND CHILL INDEX.

*  THESE STATIONS ARE NOT NWS OR FAA STATIONS AND ARE NOT UNDER
   NWS QUALITY CONTROL.

LAZ038-040-048-061>063-065>067-069-220200-
SOUTHEAST LOUISIANA

CITY           SKY/WX    TMP DP  RH WIND       PRES   REMARKS
N.O. AUDUBON     N/A     56  53  90 MISG        N/A
N.O. INTL ARPT CLOUDY    55  51  86 E7        29.98F FOG
N.O. LAKEFRONT CLOUDY    56  51  84 E7        29.99F
N.O. DOWNTOWN*   N/A     55  48  76 NE3       29.98F
SLIDELL        CLOUDY    51  49  92 CALM      29.99S
BATON ROUGE    MOCLDY    54  50  86 NE6       29.97S
BOOTHVILLE     CLOUDY    56  55  97 NE6       29.98F FOG
BELLE CHASSE   CLOUDY    55  53  93 E8        29.98S
BOGALUSA*        N/A     56  51  81 E6        30.01S
GALLIANO*      NOT AVBL
NEW ROADS*     NOT AVBL
GONZALES*      NOT AVBL
HAMMOND*       NOT AVBL
HOUMA*         CLOUDY    53  52  95 E3        29.97S
PORT FOURCHON* CLOUDY    59  55  88 E12       29.99F

$$

MSZ070-080>082-220200-
SOUTHERN MISSISSIPPI

CITY           SKY/WX    TMP DP  RH WIND       PRES   REMARKS
MCCOMB         CLOUDY    55  50  83 E8        29.97F
GULFPORT       CLOUDY    57  53  86 E6        30.00R
BILOXI         CLOUDY    56  55  94 E7        30.00R
PASCAGOULA     CLOUDY    56  53  90 NE3       30.01R

$$

COASTAL OBSERVATIONS
LAKE AND NEARSHORE STATIONS

STATION/POSITION TIME  TEMP    WIND        PRES    WAVE
                       AIR SEA DIR/SP/G            HT/PER
                 (UTC) (F)     (DEG/KT/KT) (MB)    (FT/S)
PASCAGOULA       0000   57      20/  4/  7 1015.8
WAVELAND YACHT   0000   54      CALM  /  1 1015.2
GRAND ISLE       0000   58 60   60/ 10/ 13 1015.2
SOUTHWEST PASS   0000   58                 1014.3
NEW CANAL        0000   55 56   80/  5/  7 1015.6
SHELL BEACH      0000   55 57   70/  9/ 10 1015.6

OFFSHORE STATIONS

STATION/POSITION TIME  TEMP    WIND        PRES    WAVE
                       AIR SEA DIR/SP/G            HT/PER
                 (UTC) (F)     (DEG/KT/KT) (MB)    (FT/S)
64 S DAUPHIN ISL 0100   67 74   90/ 12/ 14 1015.4    2/ 6

$$




USA.gov is the U.S. government's official web portal to all federal, state and local government web resources and services.